Volver al catálogo

COSMOS 2611

ActivoMilitarSSO
NORAD 68759·PAYLOAD·🇷🇺 Russia

Lanzado Apr 16, 2026 desde Plesetsk Cosmodrome

Loading…

Próximos Pases (próximas 24 horas)

TLE

ActualizadoSource: Space-Track

Época: Sep 14, 2026, 22:58 UTC

1 68759U 26083G   26257.95722149  .00001547  00000-0  10897-3 0  9990
2 68759  97.8242  36.6395 0012586 113.7983 246.4565 15.06504092 22700

Sigue COSMOS 2611 en tiempo real con AllMySat

Download on the App Store